Location: Banios
(43.0451°N, 0.2335°E)
Time: 09:33:14
(UTC+00:00)

A-11 Canister half - Pass Details

Date: 19 May 2021
Orbit: 1527 x 1681 km, 47.3° (Epoch: 22 June)

Event Time Altitude Azimuth Distance (km) Brightness Sun altitude
Rises 11:04:59 0° 283° (WNW) 4,757 11.4 64.5°
Reaches altitude 10° 11:08:03 10° 286° (WNW) 3,792 11.0 64.8°
Maximum altitude 11:17:45 74° 11° (N) 1,684 10.2 65.5°
Drops below altitude 10° 11:27:46 10° 97° (E) 3,908 11.4 66.1°
Sets 11:30:59 0° 99° (E) 4,908 11.8 66.3°
